GW4801 Weather Reports


Display with metric or nautical units.
time (UTC)temp
F
wind
direction
speed
MPH
gust
MPH
rain 1hr
in
rain 24hr
in
rain mn
in
humidity
%
barometer
mb
20260510142404 73 54 4.0 7.0 0.00 1.11 0.00 94 1015.9
20260510142125 73 37 4.0 7.0 0.00 1.11 0.00 94 1015.8
20260510141403 73 70 3.0 7.0 0.00 1.11 0.00 94 1015.8
20260510140905 73 90 4.0 11.0 0.00 1.12 0.00 95 1015.8
20260510140404 72 87 7.0 11.0 0.00 1.15 0.00 95 1015.7
20260510135905 72 91 9.0 12.0 0.00 1.19 0.00 97 1015.7
20260510135403 72 77 9.0 12.0 0.00 1.22 0.00 98 1015.7
20260510134905 72 75 9.0 11.0 0.00 1.24 0.00 100 1015.8
20260510134404 71 90 8.0 11.0 0.00 1.25 0.00 100 1015.8
20260510133905 71 69 8.0 11.0 0.00 1.26 0.00 100 1015.8
20260510133403 70 80 7.0 11.0 0.00 1.27 0.00 100 1015.7
20260510132904 70 59 6.0 22.0 0.00 1.30 0.00 100 1015.7
20260510132404 70 49 7.0 23.0 0.00 1.37 0.00 100 1015.6
20260510131905 70 53 8.0 23.0 0.00 1.44 0.00 100 1015.5
20260510131403 69 57 7.0 22.0 0.00 1.54 0.00 99 1015.5
20260510130904 69 50 7.0 22.0 0.00 1.69 0.00 99 1015.4
20260510130404 69 55 8.0 21.0 0.00 1.76 0.00 99 1015.3
20260510125904 69 53 8.0 21.0 0.00 1.76 0.00 99 1015.1
20260510125403 69 45 8.0 21.0 0.00 1.76 0.00 99 1015.1
20260510124904 69 51 10.0 24.0 0.00 1.76 0.00 99 1015.0
20260510124628 69 46 11.0 24.0 0.00 1.76 0.00 99 1015.0
20260510123905 69 48 10.0 23.0 0.00 1.76 0.00 99 1014.9
20260510123404 69 47 10.0 23.0 0.00 1.76 0.00 99 1014.8
20260510122904 68 45 7.0 22.0 0.00 1.76 0.00 99 1014.7
20260510122403 68 48 6.0 17.0 0.00 1.76 0.00 99 1014.6
20260510121905 68 46 6.0 17.0 0.00 1.76 0.00 99 1014.6
20260510121630 68 59 6.0 17.0 0.00 1.76 0.00 99 1014.5
20260510120904 68 54 5.0 18.0 0.00 1.76 0.00 99 1014.4
20260510120403 68 53 5.0 18.0 0.00 1.76 0.00 99 1014.4
20260510115904 68 47 6.0 18.0 0.00 1.76 0.00 99 1014.4
20260510115842 68 53 5.0 20.0 0.00 1.76 0.00 99 1014.3
20260510114904 68 47 5.0 20.0 0.00 1.76 0.00 99 1014.2
20260510114403 68 48 5.0 8.0 0.00 1.76 0.00 99 1014.2
20260510113904 68 47 5.0 16.0 0.00 1.76 0.00 99 1014.1
20260510113403 68 50 6.0 16.0 0.00 1.76 0.00 99 1013.9
20260510112904 68 51 6.0 11.0 0.00 1.76 0.00 99 1013.7
20260510112403 68 54 6.0 11.0 0.00 1.76 0.00 99 1013.7
20260510111904 68 74 6.0 11.0 0.00 1.76 0.00 99 1013.6
20260510111403 68 47 5.0 8.0 0.00 1.76 0.00 99 1013.5
20260510110904 68 57 5.0 8.0 0.00 1.76 0.00 99 1013.5
20260510110403 68 52 5.0 8.0 0.00 1.76 0.00 99 1013.5
20260510105904 68 57 5.0 8.0 0.00 1.76 0.00 99 1013.3
20260510105402 68 56 5.0 8.0 0.00 1.76 0.00 99 1013.3
20260510104904 68 58 4.0 8.0 0.00 1.76 0.00 99 1013.2
20260510104624 68 53 5.0 7.0 0.00 1.76 0.00 99 1013.1
20260510103905 68 46 5.0 8.0 0.00 1.76 0.00 99 1012.9
20260510103622 68 57 5.0 8.0 0.00 1.76 0.00 99 1012.8
20260510102905 68 47 5.0 7.0 0.00 1.76 0.00 99 1012.7
20260510102844 68 48 5.0 7.0 0.00 1.76 0.00 99 1012.8
20260510101901 68 45 4.0 7.0 0.00 1.76 0.00 99 1012.7
20260510101401 68 43 4.0 7.0 0.00 1.76 0.00 99 1012.6
20260510100901 68 58 5.0 8.0 0.00 1.76 0.00 99 1012.5
20260510100401 68 46 6.0 8.0 0.00 1.76 0.00 99 1012.5
20260510095902 68 43 6.0 8.0 0.00 1.76 0.00 99 1012.4
20260510095401 68 42 5.0 7.0 0.00 1.76 0.00 99 1012.4
20260510094902 68 46 4.0 8.0 0.00 1.76 0.00 99 1012.5
20260510094620 68 41 5.0 9.0 0.00 1.76 0.00 99 1012.5
20260510093902 68 55 5.0 9.0 0.00 1.76 0.00 99 1012.5
20260510093620 68 49 6.0 9.0 0.00 1.76 0.00 99 1012.5
20260510092901 68 49 6.0 9.0 0.00 1.76 0.00 99 1012.5
20260510092622 68 41 6.0 8.0 0.00 1.76 0.00 99 1012.4
20260510091901 68 49 6.0 9.0 0.00 1.76 0.00 99 1012.3
20260510091356 68 44 6.0 9.0 0.00 1.76 0.00 99 1012.2
20260510090850 68 44 6.0 8.0 0.00 1.76 0.00 99 1012.2
20260510090343 68 49 6.0 8.0 0.00 1.76 0.00 99 1012.2
20260510085838 68 36 6.0 9.0 0.00 1.76 0.00 99 1012.2
20260510085338 68 40 7.0 9.0 0.00 1.76 0.00 99 1012.2
20260510084838 68 42 7.0 9.0 0.00 1.76 0.00 99 1012.3
20260510084338 69 42 7.0 9.0 0.00 1.76 0.00 99 1012.2
20260510083838 68 39 7.0 9.0 0.00 1.76 0.00 99 1012.3
20260510083338 68 39 7.0 9.0 0.00 1.76 0.00 99 1012.3
20260510082838 68 37 7.0 9.0 0.00 1.76 0.00 99 1012.2
20260510082559 68 44 6.0 8.0 0.00 1.76 0.00 99 1012.3
20260510081838 67 37 6.0 8.0 0.00 1.76 0.00 99 1012.3
20260510081339 67 36 7.0 8.0 0.00 1.76 0.00 99 1012.1
20260510081057 67 38 6.0 8.0 0.00 1.76 0.00 99 1012.0
20260510080338 67 32 6.0 8.0 0.00 1.76 0.00 99 1012.0
20260510075838 67 38 6.0 8.0 0.00 1.76 0.00 99 1012.0
20260510075819 67 35 6.0 7.0 0.00 1.76 0.00 99 1012.0
20260510074833 67 33 6.0 6.0 0.00 1.76 0.00 99 1012.0
20260510074333 67 27 6.0 6.0 0.00 1.76 0.00 99 1012.0
20260510073833 67 31 5.0 6.0 0.00 1.76 0.00 99 1012.0
20260510073333 67 30 5.0 6.0 0.00 1.76 0.00 99 1011.9
20260510072833 67 28 5.0 6.0 0.00 1.76 0.00 99 1011.8
20260510072333 67 41 5.0 7.0 0.00 1.76 0.00 99 1011.7
20260510071833 67 31 5.0 7.0 0.00 1.76 0.00 99 1011.7
20260510071333 67 32 5.0 6.0 0.00 1.76 0.00 99 1011.6
20260510070834 67 55 5.0 6.0 0.00 1.76 0.00 99 1011.5
20260510070333 67 36 6.0 7.0 0.00 1.76 0.00 99 1011.7
20260510065833 67 44 6.0 7.0 0.00 1.76 0.00 99 1011.8
20260510065556 67 26 6.0 7.0 0.00 1.76 0.00 99 1011.9
20260510064834 67 32 5.0 7.0 0.00 1.76 0.00 99 1011.9
20260510064550 67 36 5.0 7.0 0.00 1.76 0.00 99 1011.9
20260510063832 67 32 6.0 7.0 0.00 1.76 0.00 99 1011.9
20260510063551 67 27 5.0 7.0 0.00 1.76 0.00 99 1011.9
20260510062832 67 42 6.0 8.0 0.00 1.76 0.00 99 1011.7
20260510062332 67 35 6.0 8.0 0.00 1.76 0.00 99 1011.8
20260510061832 67 27 6.0 9.0 0.00 1.76 0.00 99 1011.8
20260510061332 67 44 7.0 9.0 0.00 1.76 0.00 99 1011.9
20260510060832 67 32 7.0 9.0 0.00 1.76 0.00 99 1012.0
20260510060814 68 32 6.0 8.0 0.00 1.76 0.00 99 1012.0
20260510055831 68 34 5.0 6.0 0.00 1.76 0.00 99 1011.9
20260510055331 68 30 4.0 6.0 0.00 1.76 0.00 99 1011.9
20260510054831 68 39 5.0 7.0 0.00 1.76 0.00 99 1011.9
20260510054332 68 30 6.0 8.0 0.00 1.76 0.00 99 1012.0
20260510053832 68 26 6.0 8.0 0.00 1.76 0.00 99 1011.9
20260510053331 68 34 4.0 6.0 0.00 1.76 0.00 99 1011.6
20260510052831 68 56 5.0 7.0 0.00 1.76 0.00 99 1011.6
20260510052550 69 36 5.0 7.0 0.00 1.76 0.00 99 1011.8
20260510051831 69 42 4.0 6.0 0.00 1.76 0.00 99 1011.7
20260510051331 69 58 4.0 6.0 0.00 1.76 0.00 99 1011.7
20260510050831 69 54 3.0 5.0 0.00 1.76 0.00 99 1011.7
20260510050331 69 60 3.0 5.0 0.00 1.76 0.00 99 1011.7
20260510045831 69 65 3.0 6.0 0.00 1.76 1.76 99 1011.8
20260510045331 69 60 4.0 6.0 0.00 1.76 1.76 99 1011.9
20260510045056 69 48 4.0 6.0 0.00 1.76 1.76 99 1011.9
20260510044331 69 48 4.0 6.0 0.00 1.76 1.76 99 1011.8
20260510043832 69 59 4.0 6.0 0.00 1.76 1.76 99 1011.8
20260510043324 69 54 4.0 6.0 0.00 1.76 1.76 99 1012.1
20260510042823 69 42 4.0 7.0 0.00 1.76 1.76 99 1012.1
20260510042804 69 40 4.0 7.0 0.00 1.76 1.76 99 1012.2
20260510041824 69 44 4.0 6.0 0.00 1.76 1.76 99 1012.2
20260510041324 69 53 4.0 7.0 0.00 1.76 1.76 99 1012.0
20260510041042 69 49 4.0 7.0 0.00 1.76 1.76 99 1011.9
20260510040536 69 54 3.0 8.0 0.00 1.76 1.76 99 1011.9
20260510035812 69 54 4.0 9.0 0.00 1.76 1.76 99 1011.8
20260510035306 68 186 5.0 9.0 0.00 1.76 1.76 99 1011.8
20260510034805 68 177 4.0 9.0 0.00 1.76 1.76 99 1012.0
20260510034306 68 179 5.0 9.0 0.00 1.76 1.76 99 1012.3
20260510034024 68 175 4.0 8.0 0.00 1.76 1.76 99 1012.4
20260510033306 68 173 4.0 8.0 0.00 1.76 1.76 99 1012.5
20260510032806 68 178 3.0 5.0 0.00 1.76 1.76 99 1012.6
20260510032535 68 178 3.0 5.0 0.00 1.76 1.76 99 1012.7
20260510031806 68 177 3.0 5.0 0.00 1.76 1.76 99 1012.7
20260510031529 68 176 4.0 5.0 0.00 1.76 1.76 99 1012.7
20260510030807 68 177 4.0 5.0 0.00 1.76 1.76 99 1012.8
20260510030306 68 178 3.0 5.0 0.00 1.76 1.76 99 1012.8
20260510025807 68 180 3.0 4.0 0.00 1.76 1.76 99 1012.7
20260510025307 68 177 3.0 5.0 0.00 1.76 1.76 99 1012.8
20260510024806 68 178 3.0 5.0 0.00 1.76 1.76 99 1012.8
20260510024306 68 177 3.0 5.0 0.00 1.76 1.76 99 1012.9
20260510023807 68 177 3.0 4.0 0.00 1.76 1.76 99 1012.7
20260510023532 68 176 3.0 4.0 0.00 1.76 1.76 99 1012.6
20260510022804 68 177 3.0 4.0 0.00 1.76 1.76 99 1012.4
20260510022306 68 176 3.0 4.0 0.00 1.76 1.76 99 1012.4
20260510021803 68 177 3.0 5.0 0.00 1.76 1.76 99 1012.3
20260510021255 68 177 4.0 6.0 0.00 1.76 1.76 99 1012.2
20260510020755 68 176 4.0 6.0 0.00 1.76 1.76 99 1012.1
20260510020252 69 178 3.0 5.0 0.00 1.76 1.76 99 1012.1
20260510015752 69 177 3.0 4.0 0.00 1.76 1.76 99 1012.2
20260510015252 69 178 3.0 5.0 0.00 1.76 1.76 99 1012.1
20260510014743 69 177 3.0 5.0 0.00 1.77 1.76 99 1012.2
20260510014237 69 177 3.0 5.0 0.00 1.78 1.76 99 1012.0
20260510013738 69 176 4.0 5.0 0.00 1.78 1.76 99 1012.1
20260510013501 69 177 4.0 7.0 0.00 1.78 1.76 99 1011.9
20260510012738 69 175 4.0 7.0 0.00 1.78 1.76 99 1011.8
20260510012500 69 177 4.0 7.0 0.00 1.78 1.76 99 1011.7
20260510011958 69 176 4.0 7.0 0.00 1.78 1.76 99 1011.7
20260510011235 69 176 4.0 6.0 0.00 1.78 1.76 99 1011.7
20260510010736 69 174 4.0 6.0 0.00 1.78 1.76 99 1011.6
20260510010232 69 176 4.0 7.0 0.00 1.78 1.76 99 1011.7
20260510005732 69 174 5.0 9.0 0.00 1.78 1.76 99 1011.7
20260510005232 69 177 5.0 9.0 0.00 1.78 1.76 99 1011.7
20260510004731 69 173 4.0 7.0 0.00 1.78 1.76 99 1011.7
20260510004232 69 177 4.0 8.0 0.00 1.78 1.76 99 1011.7
20260510003732 69 170 4.0 8.0 0.00 1.78 1.76 99 1011.7
20260510003232 69 175 4.0 8.0 0.00 1.78 1.76 99 1011.7
20260510002732 69 175 4.0 7.0 0.00 1.78 1.76 99 1011.5
20260510002233 69 176 3.0 6.0 0.00 1.78 1.76 99 1011.6
20260510001731 69 177 3.0 4.0 0.02 1.78 1.76 99 1011.7
20260510001231 69 175 3.0 6.0 0.02 1.78 1.76 99 1011.6
20260510000731 69 177 3.0 6.0 0.03 1.78 1.76 99 1011.8
20260510000233 69 178 4.0 6.0 0.04 1.78 1.76 99 1011.6
20260509235726 69 174 4.0 7.0 0.06 1.78 1.76 99 1011.6
20260509235227 69 149 4.0 7.0 0.07 1.78 1.76 99 1011.7
20260509234727 69 176 4.0 7.0 0.07 1.78 1.76 99 1011.8
20260509234226 69 176 4.0 6.0 0.07 1.78 1.76 99 1011.6
20260509233726 69 175 4.0 6.0 0.07 1.78 1.76 99 1011.6
20260509233221 69 176 5.0 7.0 0.07 1.78 1.76 99 1011.6
20260509232721 69 167 5.0 7.0 0.07 1.78 1.76 99 1011.5
20260509232221 69 173 4.0 6.0 0.07 1.77 1.76 99 1011.5
20260509231944 69 150 4.0 6.0 0.06 1.76 1.75 99 1011.9
20260509231444 69 177 4.0 7.0 0.05 1.75 1.74 99 1011.9
20260509230942 69 167 4.0 7.0 0.04 1.74 1.73 99 1011.7
20260509230221 69 176 3.0 6.0 0.03 1.74 1.72 99 1011.8
20260509225721 69 178 4.0 8.0 0.02 1.72 1.71 99 1011.7
20260509225707 69 148 4.0 18.0 0.00 1.71 1.70 99 1011.8
20260509224721 70 175 6.0 18.0 0.00 1.70 1.69 100 1011.8
20260509224447 69 198 8.0 19.0 0.02 1.70 1.69 100 1011.5
20260509223719 69 252 9.0 30.0 0.02 1.70 1.69 100 1011.5
20260509223215 70 238 11.0 30.0 0.02 1.70 1.69 100 1011.4
20260509222716 70 254 11.0 30.0 0.02 1.71 1.69 100 1011.3
20260509222216 70 251 11.0 28.0 0.02 1.71 1.69 100 1011.2
20260509221716 70 247 11.0 28.0 0.02 1.71 1.69 100 1010.9
20260509221215 70 244 10.0 22.0 0.02 1.72 1.69 100 1010.8
20260509220716 70 260 10.0 23.0 0.02 1.72 1.69 100 1010.7
20260509220216 70 253 11.0 25.0 0.02 1.72 1.69 100 1010.9
20260509215716 70 248 10.0 25.0 0.02 1.72 1.69 100 1011.1
20260509215217 69 240 10.0 24.0 0.02 1.72 1.69 100 1011.3
20260509214938 69 270 11.0 26.0 0.02 1.71 1.69 100 1011.3
20260509214217 69 262 11.0 28.0 0.00 1.70 1.68 99 1011.4
20260509213717 69 251 11.0 28.0 0.00 1.70 1.68 99 1011.6
20260509213216 69 235 12.0 28.0 0.00 1.70 1.67 99 1011.5
20260509212714 69 256 11.0 28.0 0.00 1.70 1.67 99 1011.2
20260509212214 69 260 10.0 28.0 0.00 1.70 1.67 98 1010.9
20260509211714 69 250 9.0 27.0 0.00 1.71 1.67 98 1010.8
20260509211214 69 250 9.0 27.0 0.00 1.72 1.67 98 1010.7
20260509210714 69 250 8.0 14.0 0.00 1.74 1.67 99 1010.6
20260509210214 69 247 9.0 21.0 0.00 1.76 1.67 99 1010.7
20260509205714 69 251 9.0 21.0 0.01 1.79 1.67 99 1010.7
20260509205215 69 260 9.0 23.0 0.02 1.83 1.67 100 1010.5
20260509204714 69 259 11.0 33.0 0.04 1.91 1.67 100 1010.5
20260509204433 69 269 16.0 37.0 0.05 2.02 1.67 100 1010.7
20260509203714 69 103 20.0 37.0 0.06 2.16 1.67 100 1010.8
20260509203215 69 87 21.0 41.0 0.08 2.30 1.67 100 1010.7
20260509202715 68 78 21.0 41.0 0.09 2.47 1.67 100 1010.9
20260509202211 68 70 20.0 38.0 0.09 2.58 1.67 99 1011.1
20260509201712 68 204 22.0 38.0 0.10 2.62 1.67 99 1011.2
20260509201212 68 96 21.0 38.0 0.11 2.62 1.67 99 1011.4
20260509200712 68 94 20.0 38.0 0.12 2.62 1.67 99 1011.7
20260509200212 68 91 20.0 40.0 0.13 2.62 1.67 99 1012.0
20260509195712 68 98 19.0 40.0 0.14 2.61 1.67 99 1012.1
20260509195212 68 103 19.0 40.0 0.14 2.60 1.65 99 1011.9
20260509194712 68 90 20.0 41.0 0.13 2.58 1.63 99 1011.9
20260509194212 68 107 21.0 41.0 0.12 2.57 1.62 99 1011.9
20260509193712 67 93 21.0 36.0 0.11 2.56 1.61 99 1012.0
20260509193212 67 97 21.0 37.0 0.11 2.54 1.59 99 1011.9
20260509192713 67 111 21.0 37.0 0.10 2.54 1.59 99 1012.0
20260509192432 67 105 20.0 37.0 0.10 2.53 1.58 99 1012.1
20260509191713 67 91 17.0 36.0 0.09 2.52 1.57 99 1012.3
20260509191431 67 114 17.0 41.0 0.09 2.52 1.57 99 1012.6
20260509191154 67 226 17.0 41.0 0.08 2.50 1.55 99 1012.7
20260509190210 67 125 18.0 38.0 0.07 2.48 1.54 99 1012.7
20260509185710 67 83 20.0 38.0 0.06 2.47 1.52 99 1012.6
20260509185207 67 203 20.0 37.0 0.06 2.46 1.52 99 1012.4
20260509184706 67 108 18.0 37.0 0.06 2.45 1.50 99 1012.3
20260509184207 67 82 18.0 36.0 0.06 2.45 1.50 99 1012.0
20260509183707 67 103 20.0 40.0 0.06 2.44 1.50 99 1012.2
20260509183207 67 104 20.0 40.0 0.05 2.44 1.49 99 1012.1
20260509182708 67 102 19.0 38.0 0.05 2.43 1.48 99 1011.9
20260509182207 67 139 19.0 39.0 0.05 2.43 1.48 99 1012.4
20260509181707 67 104 21.0 39.0 0.05 2.43 1.48 99 1012.6
20260509181433 67 90 21.0 39.0 0.05 2.42 1.47 99 1012.3
20260509180708 67 100 21.0 45.0 0.06 2.42 1.47 99 1012.3
20260509180207 67 104 20.0 45.0 0.08 2.41 1.46 99 1012.3
20260509175708 67 117 20.0 36.0 0.12 2.41 1.46 99 1012.2
20260509175205 67 98 21.0 40.0 0.13 2.40 1.45 99 1012.2
20260509174704 67 86 20.0 40.0 0.14 2.39 1.44 99 1012.2
20260509174204 67 91 20.0 41.0 0.17 2.39 1.44 99 1012.3
20260509173703 67 96 21.0 41.0 0.25 2.39 1.44 99 1012.1
20260509173203 66 93 19.0 36.0 0.36 2.39 1.44 99 1012.2
20260509172703 66 114 18.0 35.0 0.41 2.38 1.43 99 1012.4
20260509172428 66 101 16.0 35.0 0.43 2.38 1.43 99 1012.5
20260509171704 66 109 16.0 33.0 0.43 2.38 1.43 99 1012.9
20260509171426 66 111 16.0 33.0 0.44 2.37 1.42 99 1012.9
20260509170703 66 119 18.0 39.0 0.46 2.36 1.41 99 1012.7
20260509170203 66 100 19.0 39.0 0.47 2.33 1.39 99 1012.8
20260509165704 66 108 17.0 38.0 0.48 2.29 1.34 99 1012.9
20260509165204 66 106 13.0 38.0 0.49 2.28 1.33 99 1012.9
20260509164703 66 102 9.0 34.0 0.51 2.26 1.31 99 1012.8
20260509164203 66 123 9.0 34.0 0.53 2.22 1.27 99 1012.8
20260509163703 66 112 8.0 30.0 0.48 2.14 1.19 99 1012.8
20260509163204 66 87 7.0 30.0 0.39 2.03 1.08 99 1013.3
20260509162703 66 226 7.0 12.0 0.37 1.97 1.02 99 1013.2
20260509162203 66 206 7.0 11.0 0.35 1.95 1.00 99 1013.1
20260509161703 66 79 8.0 11.0 0.35 1.94 1.00 99 1013.0
20260509161202 66 75 8.0 11.0 0.33 1.93 0.98 99 1013.0
20260509160703 66 59 8.0 11.0 0.30 1.90 0.95 99 1013.0
20260509160203 67 66 8.0 19.0 0.26 1.86 0.91 99 1013.3
20260509155703 67 64 8.0 21.0 0.21 1.81 0.86 99 1013.3
20260509155204 67 57 9.0 21.0 0.19 1.79 0.84 100 1013.0
20260509154923 67 228 8.0 19.0 0.15 1.75 0.80 100 1012.8
20260509154623 67 54 7.0 12.0 0.09 1.69 0.74 99 1013.1
20260509153202 68 60 8.0 13.0 0.04 1.64 0.69 98 1012.8
20260509152703 68 58 7.0 13.0 0.00 1.60 0.65 98 1012.6
20260509152203 68 215 5.0 10.0 0.00 1.60 0.65 98 1012.4
20260509151703 68 227 6.0 39.0 0.00 1.60 0.65 98 1012.7
20260509151202 68 52 6.0 51.0 0.00 1.60 0.65 98 1012.7
20260509150703 68 228 10.0 52.0 0.02 1.60 0.65 98 1012.8
20260509150203 68 229 12.0 52.0 0.04 1.60 0.65 99 1012.4
20260509145703 68 225 7.0 47.0 0.09 1.60 0.65 99 1012.5
20260509145203 68 226 7.0 50.0 0.12 1.60 0.65 100 1012.6
20260509144702 68 226 8.0 50.0 0.13 1.60 0.65 99 1012.4
20260509144204 68 228 7.0 48.0 0.14 1.60 0.65 99 1012.2
20260509143703 68 228 6.0 48.0 0.15 1.60 0.65 99 1012.3
20260509143203 68 227 7.0 44.0 0.17 1.60 0.65 99 1012.5
20260509142702 68 227 8.0 51.0 0.20 1.60 0.65 99 1012.6